Retour au catalogue

COSMOS 1275 DEB

LostPO
NORAD 42096·DEBRIS·🇷🇺 Russia

Lancé Jun 4, 1981 depuis Plesetsk Cosmodrome

Loading…

Prochains Passages (prochaines 24 heures)

TLE

PériméSource: Space-Track

Époque: Sep 24, 2024, 14:55 UTC

1 42096U 81053PG  24268.62197170  .00022802  00000-0  90307-2 0  9998
2 42096  82.7185  21.0614 0045622 183.0255 177.0662 14.28183173556262

Suivez COSMOS 1275 DEB en temps réel avec AllMySat

Download on the App Store